CW3467 Weather Reports


Display with metric or nautical units.
time (UTC)temp
F
wind
direction
speed
MPH
gust
MPH
rain 1hr
in
rain 24hr
in
rain mn
in
humidity
%
barometer
mb
20240623173324 78 306 8.0 18.0 0.00 0.00 0.00 32 1011.9
20240623171034 79 29 7.0 15.0 0.00 0.00 0.00 30 1011.9
20240623163421 80 347 9.0 18.0 0.00 0.00 0.00 29 1011.7
20240623160355 82 335 7.0 15.0 0.00 0.00 0.00 27 1011.6
20240623155424 82 327 4.0 12.0 0.00 0.00 0.00 28 1011.7
20240623151039 82 220 3.0 7.0 0.00 0.00 0.00 37 1011.9
20240623144932 83 210 2.0 6.0 0.00 0.00 0.00 36 1012.0
20240623143158 82 231 3.0 10.0 0.00 0.00 0.00 37 1012.1
20240623141040 82 212 4.0 9.0 0.00 0.00 0.00 37 1012.4
20240623135424 82 261 3.0 8.0 0.00 0.00 0.00 38 1012.5
20240623125424 80 245 1.0 5.0 0.00 0.00 0.00 36 1013.0
20240623121031 79 215 3.0 9.0 0.00 0.00 0.00 39 1013.6
20240623112421 78 240 3.0 10.0 0.00 0.00 0.00 41 1014.0
20240623111027 77 217 4.0 8.0 0.00 0.00 0.00 40 1014.3
20240623105420 77 165 2.0 5.0 0.00 0.00 0.00 42 1014.4
20240623101040 75 175 1.0 6.0 0.00 0.00 0.00 44 1014.8
20240623091033 72 205 0.0 3.0 0.00 0.00 0.00 52 1015.4
20240623082424 69 234 0.0 2.0 0.00 0.00 0.00 59 1015.5
20240623081038 68 207 0.0 2.0 0.00 0.00 0.00 58 1015.5
20240623072423 64 145 0.0 0.0 0.00 0.00 0.00 67 1015.9
20240623064530 61 127 0.0 0.0 0.00 0.00 0.00 71 1015.6
20240623061030 59 15 0.0 0.0 0.00 0.00 0.00 72 1015.5
20240623051028 56 18 1.0 3.0 0.00 0.00 0.00 77 1015.2
20240623031029 58 8 1.0 3.0 0.00 0.00 0.00 73 1015.3
20240623021029 59 219 0.0 2.0 0.00 0.00 0.00 71 1015.3
20240623010420 60 127 0.0 1.0 0.00 0.00 0.00 69 1015.7
20240623001034 62 135 0.0 2.0 0.00 0.00 0.00 66 1015.7
20240622232421 63 354 0.0 2.0 0.00 0.00 0.00 59 1015.8
20240622231031 64 9 1.0 5.0 0.00 0.00 0.00 59 1015.8
20240622221031 65 44 0.0 0.0 0.00 0.00 0.00 60 1016.3
20240622213409 65 79 2.0 3.0 0.00 0.00 0.00 61 1016.3
20240622211031 66 333 0.0 1.0 0.00 0.00 0.00 59 1016.2
20240622200633 68 91 1.0 4.0 0.00 0.00 0.00 54 1015.7
20240622195437 68 77 2.0 4.0 0.00 0.00 0.00 54 1015.6
20240622190727 70 156 3.0 5.0 0.00 0.00 0.00 52 1015.3
20240622181043 73 171 4.0 10.0 0.00 0.00 0.00 47 1015.4
20240622174528 74 210 5.0 11.0 0.00 0.00 0.00 46 1015.3